Home > Weather > Karaikudi > Past weeks

Flag for India Past Weather in Karaikudi, Tamil Nadu, India — Yesterday and Last 2 Weeks

Now
91 °F

Passing clouds.


Feels Like: 99 °F
Forecast: 79 / 103 °F
Wind: 7 mph from West

Location: Tiruchchirapalli

Current Time: May 25, 2016 at 8:27:41 PM

Latest Report: May 25, 2016 at 8:00 PM


Visibility: 4 mi

Pressure: 29.68 "Hg

Humidity: 52%

Dew Point: 72 °F

Location of KaraikudiLocation

Past Weather in Karaikudi — Graph

°F

Karaikudi Temperature Yesterday

Maximum temperature yesterday: 104 °F (at 3:30 PM)
Minimum temperature yesterday: 84 °F (at 3:30 AM)
Average temperature yesterday: 93 °F

High & Low Weather Summary for the Past Weeks

 TemperatureHumidityPressure
High104 °F (May 24, 3:30 PM)100% (May 16, 8:00 AM)29.83 "Hg (May 16, 8:00 AM)
Low73 °F (May 18, 6:00 AM)33% (May 13, 5:30 PM)29.53 "Hg (May 17, 4:00 PM)
Average87 °F69%29.70 "Hg
* Reported May 10 6:30 PM — May 25 7:00 PM, Karaikudi, Weather by CustomWeather, © 2016

Note: Actual official high and low records may vary slightly from our data, if they occured in-between our weather recording intervals... More about our weather records

Advertising

Karaikudi Weather History for the Previous 24 Hours

Scroll right to see more
 ConditionsComfort  
Time TempWeatherWind HumidityBarometerVisibility
7:00 PM
Wed, May 25
93 °FPassing clouds.9 mph49%29.68 "Hg4 mi
6:30 PM95 °FPassing clouds.9 mph47%29.68 "Hg4 mi
6:00 PM99 °FPassing clouds.9 mph39%29.62 "Hg5 mi
5:30 PM100 °FPassing clouds.12 mph37%29.62 "HgN/A
5:00 PM100 °FPassing clouds.10 mph37%29.62 "HgN/A
4:30 PM100 °FPassing clouds.13 mph37%29.62 "HgN/A
4:00 PM102 °FPassing clouds.12 mph35%29.62 "HgN/A
3:30 PM104 °FPassing clouds.10 mph35%29.62 "HgN/A
3:00 PM102 °FPassing clouds.15 mph37%29.62 "HgN/A
2:30 PM102 °FPassing clouds.14 mph37%29.65 "HgN/A
2:00 PM102 °FPassing clouds.14 mph37%29.65 "Hg5 mi
1:30 PM100 °FPassing clouds.12 mph40%29.68 "Hg5 mi
1:00 PM99 °FPassing clouds.8 mph42%29.68 "Hg5 mi
12:30 PM99 °FPassing clouds.16 mph44%29.71 "Hg5 mi
12:00 PM99 °FPassing clouds.20 mph42%29.71 "Hg5 mi
11:30 AM97 °FPassing clouds.14 mph44%29.71 "Hg5 mi
11:00 AM95 °FPassing clouds.20 mph47%29.74 "Hg4 mi
10:30 AM93 °FPassing clouds.14 mph53%29.74 "Hg4 mi
10:00 AM91 °FPassing clouds.22 mph56%29.74 "Hg4 mi
9:30 AM91 °FPassing clouds.16 mph56%29.74 "Hg4 mi
9:00 AM90 °FPassing clouds.20 mph59%29.74 "Hg4 mi
8:30 AM90 °FPassing clouds.14 mph59%29.74 "Hg4 mi
8:00 AM88 °FPassing clouds.10 mph66%29.74 "Hg4 mi
7:30 AM86 °FPassing clouds.10 mph70%29.71 "Hg4 mi
7:00 AM86 °FPassing clouds.10 mph70%29.71 "Hg4 mi
6:30 AM84 °FPassing clouds.9 mph74%29.71 "Hg4 mi
6:00 AM84 °FPassing clouds.14 mph74%29.71 "Hg4 mi
5:30 AM84 °FPassing clouds.9 mph74%29.71 "Hg4 mi
5:00 AM84 °FPassing clouds.12 mph70%29.71 "Hg4 mi
4:30 AM84 °FPassing clouds.12 mph70%29.71 "Hg4 mi
4:00 AM86 °FPassing clouds.12 mph66%29.71 "Hg4 mi
3:30 AM86 °FPassing clouds.12 mph66%29.71 "Hg4 mi
3:00 AM86 °FPassing clouds.12 mph70%29.71 "Hg4 mi
2:30 AM86 °FPassing clouds.13 mph70%29.71 "Hg4 mi
2:00 AM86 °FPassing clouds.10 mph66%29.71 "Hg4 mi
1:30 AM86 °FPassing clouds.12 mph66%29.71 "Hg4 mi
1:00 AM88 °FPassing clouds.10 mph62%29.71 "Hg4 mi
12:30 AM88 °FPassing clouds.12 mph62%29.74 "Hg4 mi
12:00 AM88 °FPassing clouds.12 mph62%29.74 "Hg4 mi
11:30 PM
Tue, May 24
90 °FPassing clouds.7 mph63%29.74 "Hg4 mi
11:00 PM90 °FPassing clouds.3 mph67%29.74 "Hg4 mi
10:30 PM90 °FPassing clouds.2 mph67%29.74 "Hg4 mi
10:00 PM90 °FPassing clouds.3 mph67%29.74 "Hg4 mi
9:30 PM90 °FPassing clouds.5 mph63%29.74 "Hg4 mi
9:00 PM91 °FPassing clouds.6 mph59%29.74 "Hg4 mi
8:30 PM91 °FPassing clouds.8 mph59%29.71 "Hg4 mi
8:00 PM93 °FPassing clouds.6 mph49%29.71 "Hg4 mi
Weather by CustomWeather, © 2016

See weather overviewHow to use our weather pages